Weather History for Bellaire, MI

Change the Weather History Date:

Sunday, February 9, 2014

  Actual Average (KTVC) Record (KTVC)
Temperature  
Mean Temperature 14 °F 22 °F  
Max Temperature 21 °F 29 °F 50 °F (1925)
Min Temperature 8 °F 14 °F -27 °F (1899)
Degree Days  
Heating Degree Days 50 43  
Month to date heating degree days 394  
Since 1 July heating degree days 4550  
Moisture  
Dew Point 8 °F    
Average Humidity 78    
Maximum Humidity 90    
Minimum Humidity 50    
Precipitation  
Precipitation 0.00 in 0.06 in 0.74 in (2001)
Month to date precipitation 0.52  
Year to date precipitation 3.34  
Sea Level Pressure  
Sea Level Pressure 30.07 in    
Wind  
Wind Speed 1 mph (NW)    
Max Wind Speed 8 mph    
Max Gust Speed -    
Visibility 6 miles    
Events Snow    
T = Trace of Precipitation, MM = Missing Value Source: NWS Daily Summary

Daily Weather History Graph

Daily Weather History Graph

Search for Another Location

Airport:

Trip Planner

Search our weather history database for the weather conditions in past years. The results will help you decide how hot, cold, wet, or windy it might be!

Date:

Astronomy

Feb. 09, 2014 Rise Set
Actual Time 7:50 AM EST 6:00 PM EST
Civil Twilight 7:19 AM EST 6:30 PM EST
Nautical Twilight 6:45 AM EST 7:05 PM EST
Astronomical Twilight 6:11 AM EST 7:39 PM EST
Moon 1:35 PM EST (2/9) 3:59 AM EST (2/9)
Length of Visible Light 11h 11m
Length of Day
10h 10m
Waxing Gibbous, 77% of the Moon is Illuminated
Feb 9
Waxing Gibbous
Feb 14
Full
Feb 22
Last Quarter
Mar 1
New
Mar 8
First Quarter

Hourly Weather History & Observations

Time (EST) Temp. Windchill Dew Point Humidity Pressure Visibility Wind Dir Wind Speed Gust Speed Precip Events Conditions
12:12 AM 10.2 °F - 6.8 °F 86% 30.10 in 4.0 mi Calm Calm - N/A Snow Light Snow
12:32 AM 9.5 °F - 6.1 °F 86% 30.10 in 4.0 mi Calm Calm - N/A Snow Light Snow
12:53 AM 10.0 °F - 6.8 °F 87% 30.10 in 2.5 mi Calm Calm - N/A Snow Light Snow
1:12 AM 10.2 °F - 6.8 °F 86% 30.10 in 2.0 mi Calm Calm - N/A Snow Light Snow
1:32 AM 10.6 °F - 7.5 °F 87% 30.09 in 2.5 mi Calm Calm - N/A Snow Light Snow
1:53 AM 11.1 °F - 8.1 °F 87% 30.08 in 2.0 mi Calm Calm - N/A Snow Light Snow
2:12 AM 11.1 °F - 8.2 °F 88% 30.08 in 2.0 mi Calm Calm - N/A Snow Light Snow
2:32 AM 11.3 °F - 8.2 °F 87% 30.08 in 1.5 mi Calm Calm - N/A Snow Light Snow
2:53 AM 11.3 °F - 8.4 °F 88% 30.07 in 1.8 mi Calm Calm - N/A Snow Light Snow
3:12 AM 11.5 °F - 8.6 °F 88% 30.07 in 1.8 mi Calm Calm - N/A Snow Light Snow
3:32 AM 10.9 °F - 7.9 °F 87% 30.06 in 3.0 mi Calm Calm - N/A Snow Light Snow
3:53 AM 10.4 °F - 7.7 °F 89% 30.06 in 3.0 mi Calm Calm - N/A Snow Light Snow
4:12 AM 10.6 °F - 7.7 °F 88% 30.05 in 3.0 mi Calm Calm - N/A Snow Light Snow
4:32 AM 11.1 °F - 8.4 °F 89% 30.05 in 4.0 mi Calm Calm - N/A Snow Light Snow
4:53 AM 11.1 °F - 8.4 °F 89% 30.05 in 4.0 mi Calm Calm - N/A Snow Light Snow
5:12 AM 10.6 °F - 7.9 °F 89% 30.05 in 4.0 mi Calm Calm - N/A Snow Light Snow
5:32 AM 10.8 °F - 7.9 °F 88% 30.05 in 4.0 mi Calm Calm - N/A Snow Light Snow
5:53 AM 10.4 °F - 7.7 °F 89% 30.04 in 5.0 mi Calm Calm - N/A Snow Light Snow
6:12 AM 10.9 °F - 8.1 °F 88% 30.04 in 5.0 mi Calm Calm - N/A   Overcast
6:32 AM 10.4 °F - 7.7 °F 89% 30.04 in 5.0 mi Calm Calm - N/A Snow Light Snow
6:53 AM 9.9 °F - 7.0 °F 88% 30.04 in 5.0 mi Calm Calm - N/A Snow Light Snow
7:12 AM 10.0 °F - 7.3 °F 89% 30.04 in 4.0 mi Calm Calm - N/A Snow Light Snow
7:33 AM 11.3 °F - 8.6 °F 89% 30.05 in 3.0 mi Calm Calm - N/A Snow Light Snow
7:52 AM 10.9 °F - 8.1 °F 88% 30.05 in 1.8 mi Calm Calm - N/A Snow Light Snow
8:12 AM 11.8 °F - 9.1 °F 89% 30.05 in 0.8 mi Calm Calm - N/A Snow Light Snow
8:33 AM 11.7 °F - 8.8 °F 88% 30.05 in 1.0 mi Calm Calm - N/A Snow Light Snow
8:52 AM 11.8 °F - 9.1 °F 89% 30.05 in 1.5 mi Calm Calm - N/A Snow Light Snow
9:12 AM 13.1 °F - 10.4 °F 89% 30.04 in 0.8 mi Calm Calm - N/A Snow Light Snow
9:33 AM 14.4 °F - 10.9 °F 86% 30.04 in 1.0 mi Calm Calm - N/A Snow Light Snow
9:52 AM 14.5 °F - 10.6 °F 84% 30.04 in 1.2 mi Calm Calm - N/A Snow Light Snow
10:12 AM 15.3 °F - 11.1 °F 84% 30.04 in 1.0 mi Calm Calm - N/A Snow Light Snow
10:33 AM 15.6 °F - 11.5 °F 84% 30.04 in 1.0 mi Calm Calm - N/A Snow Light Snow
10:52 AM 16.2 °F - 11.7 °F 82% 30.03 in 2.0 mi Calm Calm - N/A Snow Light Snow
11:12 AM 16.2 °F - 11.7 °F 82% 30.03 in 2.5 mi Calm Calm - N/A Snow Light Snow
11:33 AM 17.4 °F - 12.2 °F 80% 30.03 in 7.0 mi Calm Calm - N/A   Mostly Cloudy
11:52 AM 17.8 °F - 11.8 °F 78% 30.03 in 10.0 mi Calm Calm - N/A   Mostly Cloudy
12:13 PM 18.5 °F - 11.3 °F 73% 30.03 in 10.0 mi Calm Calm - N/A   Overcast
12:32 PM 19.4 °F 11.5 °F 11.5 °F 71% 30.03 in 10.0 mi North 5.8 mph - N/A   Overcast
12:52 PM 18.9 °F - 9.3 °F 66% 30.02 in 10.0 mi Calm Calm - N/A   Scattered Clouds
1:12 PM 20.3 °F 13.8 °F 9.1 °F 62% 30.01 in 10.0 mi North 4.6 mph - N/A   Scattered Clouds
1:32 PM 20.3 °F - 5.9 °F 54% 30.01 in 10.0 mi Calm Calm - N/A   Scattered Clouds
1:52 PM 20.3 °F 13.8 °F 5.0 °F 52% 30.01 in 10.0 mi NW 4.6 mph - N/A   Mostly Cloudy
2:13 PM 21.0 °F 11.4 °F 8.1 °F 57% 30.01 in 10.0 mi West 8.1 mph - N/A   Overcast
2:32 PM 19.9 °F 11.1 °F 9.3 °F 63% 30.02 in 10.0 mi WNW 6.9 mph - N/A   Overcast
2:52 PM 19.4 °F 11.5 °F 9.3 °F 65% 30.02 in 10.0 mi West 5.8 mph - N/A   Overcast
3:13 PM 21.0 °F - 7.2 °F 55% 30.01 in 10.0 mi Calm Calm - N/A   Mostly Cloudy
3:32 PM 20.7 °F 13.0 °F 4.8 °F 50% 30.02 in 10.0 mi NNW 5.8 mph - N/A   Scattered Clouds
3:52 PM 21.0 °F 11.4 °F 6.4 °F 53% 30.03 in 10.0 mi WNW 8.1 mph - N/A   Mostly Cloudy
4:13 PM 19.4 °F 11.5 °F 4.1 °F 52% 30.03 in 10.0 mi West 5.8 mph - N/A   Mostly Cloudy
4:32 PM 18.5 °F 11.7 °F 3.0 °F 51% 30.04 in 10.0 mi West 4.6 mph - N/A   Overcast
4:52 PM 18.1 °F 10.0 °F 2.3 °F 50% 30.04 in 10.0 mi WNW 5.8 mph - N/A   Overcast
5:13 PM 17.6 °F 9.3 °F 4.1 °F 56% 30.06 in 10.0 mi WNW 5.8 mph - N/A   Overcast
5:32 PM 17.6 °F 12.3 °F 4.5 °F 56% 30.06 in 10.0 mi NW 3.5 mph - N/A   Overcast
5:52 PM 17.2 °F - 5.0 °F 59% 30.07 in 10.0 mi Calm Calm - N/A   Overcast
6:13 PM 15.8 °F - 5.9 °F 65% 30.08 in 10.0 mi Calm Calm - N/A   Mostly Cloudy
6:32 PM 15.6 °F - 6.8 °F 68% 30.09 in 10.0 mi Calm Calm - N/A Snow Light Snow
6:52 PM 15.3 °F - 7.5 °F 71% 30.10 in 5.0 mi Calm Calm - N/A Snow Light Snow
7:12 PM 14.5 °F - 8.2 °F 76% 30.10 in 7.0 mi Calm Calm - N/A Snow Light Snow
7:32 PM 11.7 °F - 6.1 °F 78% 30.10 in 10.0 mi Calm Calm - N/A   Overcast
7:52 PM 12.7 °F - 8.4 °F 83% 30.11 in 5.0 mi Calm Calm - N/A Snow Light Snow
8:12 PM 12.7 °F - 8.4 °F 83% 30.12 in 10.0 mi Calm Calm - N/A   Overcast
8:32 PM 11.8 °F - 7.7 °F 83% 30.12 in 10.0 mi Calm Calm - N/A   Overcast
8:52 PM 10.8 °F - 7.2 °F 85% 30.13 in 10.0 mi Calm Calm - N/A   Overcast
9:12 PM 9.3 °F - 6.4 °F 88% 30.13 in 10.0 mi Calm Calm - N/A   Overcast
9:32 PM 10.2 °F - 7.5 °F 89% 30.13 in 10.0 mi Calm Calm - N/A   Overcast
9:53 PM 9.5 °F - 7.0 °F 90% 30.14 in 7.0 mi Calm Calm - N/A   Scattered Clouds
10:12 PM 8.8 °F - 6.4 °F 90% 30.14 in 10.0 mi Calm Calm - N/A   Scattered Clouds
10:32 PM 9.3 °F - 6.8 °F 89% 30.15 in 7.0 mi Calm Calm - N/A   Overcast
10:53 PM 9.5 °F - 6.8 °F 89% 30.15 in 4.0 mi Calm Calm - N/A Snow Light Snow
11:12 PM 9.5 °F 3.0 °F 6.8 °F 89% 30.15 in 4.0 mi North 3.5 mph - N/A Snow Light Snow
11:32 PM 11.3 °F 5.1 °F 7.7 °F 85% 30.16 in 7.0 mi North 3.5 mph - N/A Snow Light Snow
11:53 PM 11.3 °F 3.3 °F 6.4 °F 81% 30.17 in 7.0 mi North 4.6 mph - N/A Snow Light Snow